[[{"header":{"parameterUnit":"m.s-1","parameterCategory":1,"la1":30.2991,"la2":30.254,"lo1":-89.0895,"lo2":-89.0444,"dy":0.0017,"dx":0.0017,"nx":28,"ny":28,"refTime":"2024-06-04T03:00:00:Z","depth":0,"parameterNumber":2,"parameterNumberName":"U-component_of_WINDS"},"data":[0,0,0,0,0,0,0,0,0,0,0,0,0,0,0,0,0,0,0,0,0,0,0,0,0,0,0,0,0,0,0,0,0,0,0,0,0,0,0,0,0,0,0,0,0,0,0,0,0,0,0,0,0,0,0,0,0,0,-1.6376,-1.6376,0,-1.6378,-1.6378,-1.6378,-1.6362,-1.6362,-1.6362,-1.6361,-1.6363,-1.6363,-1.6363,0,0,0,0,0,0,0,0,0,0,0,0,0,-1.6359,-1.636,-1.6376,-1.6376,-1.6376,-1.6378,-1.6378,-1.6378,-1.6363,-1.6362,-1.6361,-1.6361,-1.6362,-1.6363,-1.6363,0,0,0,0,0,0,0,0,0,0,0,0,0,-1.6364,-1.636,-1.6376,-1.6369,-1.6368,-1.6378,-1.6378,-1.6378,-1.6363,-1.6362,-1.6361,-1.6361,-1.6362,-1.6363,-1.6364,-1.6381,0,0,-1.6366,-1.6366,0,0,0,0,0,0,0,0,-1.6364,-1.6365,-1.637,-1.6369,-1.6368,-1.6369,-1.6373,-1.6379,-1.6363,-1.6365,-1.6361,-1.636,-1.6365,-1.6366,-1.6367,-1.6381,-1.6381,-1.6366,-1.6366,-1.6366,-1.6366,0,0,0,0,0,0,0,-1.6364,-1.6365,-1.6377,-1.637,-1.6369,-1.6365,-1.6365,-1.6374,-1.6369,-1.6364,-1.6363,-1.6364,-1.6365,-1.6367,-1.6367,-1.6381,-1.6366,-1.6366,-1.6367,-1.6367,-1.6409,-1.641,0,0,0,0,0,0,-1.6364,-1.6365,-1.6377,-1.6377,-1.6365,-1.6366,-1.6366,-1.637,-1.6368,-1.6368,-1.6364,-1.6363,-1.6366,-1.6367,-1.6367,-1.6388,-1.6366,-1.6367,-1.6367,-1.6408,-1.6409,-1.641,0,0,0,0,0,0,-1.6364,-1.6366,-1.6377,-1.637,-1.6372,-1.6367,-1.6371,-1.637,-1.6372,-1.6368,-1.6367,-1.6367,-1.6366,-1.6366,-1.6378,-1.6387,-1.6367,-1.6368,-1.6407,-1.6408,-1.6409,-1.6428,0,0,0,0,0,0,-1.6364,-1.6366,-1.6372,-1.6371,-1.6372,-1.6387,-1.6372,-1.6371,-1.6373,-1.6372,-1.6371,-1.637,-1.6365,-1.6377,-1.6378,-1.6388,-1.6368,-1.6406,-1.6408,-1.6409,-1.6426,-1.6429,-1.6432,0,0,0,0,0,-1.6363,-1.6377,-1.6372,-1.6374,-1.638,-1.6387,-1.6388,-1.6382,-1.6374,-1.638,-1.6378,-1.637,-1.6386,-1.6378,-1.638,-1.639,-1.6406,-1.6407,-1.6409,-1.6425,-1.6429,-1.6432,0,0,0,0,0,0,-1.6378,-1.6376,-1.6371,-1.6385,-1.6387,-1.6385,-1.6392,-1.6386,-1.639,-1.6388,-1.6381,-1.6381,-1.6393,-1.6393,-1.6383,-1.6406,-1.6395,-1.6397,-1.6406,-1.641,-1.6413,-1.6412,-1.6369,0,0,0,0,0,-1.6384,-1.639,-1.6388,-1.64,-1.6401,-1.6397,-1.64,-1.6395,-1.6397,-1.6397,-1.6396,-1.6397,-1.6403,-1.6406,-1.6411,-1.6427,-1.6426,-1.6434,-1.6437,-1.644,-1.6441,-1.645,-1.6453,-1.6415,-1.6415,-1.6415,0,0,-1.6394,-1.6394,-1.6398,-1.6403,-1.6404,-1.6411,-1.6397,-1.6405,-1.641,-1.6398,-1.6409,-1.6408,-1.6409,-1.6423,-1.6429,-1.6423,-1.6452,-1.6442,-1.6444,-1.6444,-1.6452,-1.6455,-1.6459,-1.6416,-1.6416,-1.6416,0,0,-1.6416,-1.6417,-1.6427,-1.6428,-1.643,-1.6427,-1.643,-1.6429,-1.6428,-1.6439,-1.643,-1.6436,-1.6446,-1.6447,-1.6449,-1.6474,-1.6466,-1.6475,-1.649,-1.6499,-1.6502,-1.6504,-1.6513,-1.6516,-1.6477,-1.6477,-1.6477,0,-1.6429,-1.6439,-1.6433,-1.6442,-1.6445,-1.6435,-1.6445,-1.6447,-1.645,-1.6452,-1.6445,-1.6458,-1.6458,-1.6472,-1.6478,-1.648,-1.6482,-1.6475,-1.6502,-1.6504,-1.6507,-1.6515,-1.6518,-1.6478,-1.6478,-1.6478,-1.6478,0,-1.6454,-1.6462,-1.647,-1.6474,-1.6477,-1.6487,-1.6483,-1.6488,-1.6483,-1.6481,-1.6493,-1.6493,-1.6497,-1.6501,-1.6496,-1.6514,-1.6511,-1.6503,-1.6491,-1.6511,-1.6519,-1.6522,-1.648,-1.648,-1.6479,-1.6479,0,0,-1.6485,-1.6486,-1.649,-1.6491,-1.6493,-1.6499,-1.6508,-1.6513,-1.6518,-1.652,-1.6528,-1.6537,-1.653,-1.6533,-1.6528,-1.6536,-1.6556,-1.6528,-1.6527,-1.6533,-1.6576,-1.6581,-1.6585,-1.6551,-1.6552,-1.6552,-1.6576,0,-1.6507,-1.6523,-1.6519,-1.6535,-1.6542,-1.6534,-1.6542,-1.6544,-1.6543,-1.6549,-1.6547,-1.6554,-1.6545,-1.6546,-1.6553,-1.6552,-1.6564,-1.655,-1.6558,-1.6559,-1.6558,-1.6589,-1.6595,-1.6617,-1.6579,-1.6579,-1.658,0,-1.6534,-1.6539,-1.6556,-1.6557,-1.656,-1.6567,-1.6572,-1.6578,-1.658,-1.6579,-1.6582,-1.6577,-1.6587,-1.6575,-1.6588,-1.6579,-1.6582,-1.6582,-1.6583,-1.6583,-1.657,-1.659,-1.6624,-1.6627,-1.6584,-1.6584,-1.6584,0,-1.6555,-1.6565,-1.6577,-1.6579,-1.6581,-1.6586,-1.6587,-1.6589,-1.6593,-1.6597,-1.66,-1.6605,-1.6608,-1.6612,-1.6609,-1.66,-1.6623,-1.6611,-1.6622,-1.6622,-1.6626,-1.6626,-1.6661,-1.6629,-1.6629,-1.6629,-1.6629,0,-1.6579,-1.659,-1.6587,-1.6594,-1.6606,-1.6601,-1.6613,-1.6613,-1.6615,-1.6622,-1.6615,-1.6622,-1.6617,-1.6624,-1.6621,-1.6633,-1.6634,-1.6633,-1.6632,-1.6634,-1.6634,-1.6635,-1.6633,-1.663,-1.663,-1.6629,-1.6629,0,-1.6604,-1.6602,-1.6615,-1.6616,-1.6616,-1.6625,-1.6626,-1.6633,-1.6632,-1.6641,-1.6643,-1.6641,-1.6648,-1.6645,-1.6653,-1.6651,-1.6666,-1.6663,-1.6665,-1.6665,-1.6676,-1.6675,-1.6713,-1.6717,-1.6683,-1.6683,-1.6683,0,-1.662,-1.6628,-1.6631,-1.6635,-1.6637,-1.6644,-1.6648,-1.6644,-1.6649,-1.6653,-1.6659,-1.6666,-1.6671,-1.6684,-1.6683,-1.6689,-1.6686,-1.6699,-1.6687,-1.6688,-1.6686,-1.6685,-1.6686,-1.6701,-1.6701,-1.6702,-1.6702,0,-1.6648,-1.6647,-1.6653,-1.6659,-1.6664,-1.6669,-1.6672,-1.6677,-1.6673,-1.6678,-1.6686,-1.669,-1.6699,-1.6706,-1.6712,-1.6713,-1.6707,-1.6706,-1.6709,-1.671,-1.6711,-1.6711,-1.6672,-1.6705,-1.6705,-1.6704,-1.6704,-1.6704,-1.6668,-1.6676,-1.6679,-1.6686,-1.6689,-1.6693,-1.6699,-1.67,-1.6706,-1.6713,-1.671,-1.6719,-1.6722,-1.6729,-1.6731,-1.6738,-1.6733,-1.6737,-1.6738,-1.6739,-1.6741,-1.671,-1.6739,-1.6739,-1.6739,-1.6739,-1.6739,0,-1.6696,-1.6698,-1.6705,-1.6711,-1.6717,-1.6711,-1.6716,-1.6721,-1.6729,-1.6733,-1.6738,-1.6748,-1.6755,-1.6755,-1.6762,-1.6767,-1.6765,-1.6769,-1.6768,-1.6769,-1.6745,-1.6742,-1.6771,-1.6771,-1.6771,-1.6771,-1.6771,-1.6771,-1.6711,-1.6723,-1.6722,-1.6736,-1.6738,-1.6747,-1.675,-1.6754,-1.6756,-1.6767,-1.6773,-1.6774,-1.6776,-1.6783,-1.6789,-1.6789,-1.6792,-1.6797,-1.6796,-1.6774,-1.677,-1.6767,-1.6764,-1.6798,-1.6798,-1.6819,-1.6819,-1.6819]},{"header":{"parameterUnit":"m.s-1","parameterCategory":1,"la1":30.2991,"la2":30.254,"lo1":-89.0895,"lo2":-89.0444,"dy":0.0017,"dx":0.0017,"nx":28,"ny":28,"refTime":"2024-06-04T03:00:00:Z","depth":0,"parameterNumber":3,"parameterNumberName":"V-component_of_WINDS"},"data":[0,0,0,0,0,0,0,0,0,0,0,0,0,0,0,0,0,0,0,0,0,0,0,0,0,0,0,0,0,0,0,0,0,0,0,0,0,0,0,0,0,0,0,0,0,0,0,0,0,0,0,0,0,0,0,0,0,0,4.4576,4.4576,0,4.4576,4.4576,4.4576,4.4499,4.4497,4.4495,4.4493,4.4493,4.4495,4.4497,0,0,0,0,0,0,0,0,0,0,0,0,0,4.4507,4.4508,4.4576,4.4576,4.4576,4.4576,4.4576,4.4576,4.45,4.4497,4.4495,4.4492,4.4493,4.4495,4.4497,0,0,0,0,0,0,0,0,0,0,0,0,0,4.4525,4.4509,4.4576,4.4537,4.4534,4.4576,4.4576,4.4576,4.45,4.4497,4.4494,4.4491,4.4492,4.4495,4.4497,4.4576,0,0,4.4506,4.4507,0,0,0,0,0,0,0,0,4.4524,4.4528,4.4543,4.454,4.4536,4.4535,4.4552,4.4576,4.4501,4.4513,4.4493,4.449,4.4509,4.4511,4.4517,4.4576,4.4576,4.4506,4.4508,4.4509,4.451,0,0,0,0,0,0,0,4.4523,4.4527,4.4576,4.4543,4.4539,4.452,4.4519,4.4556,4.4528,4.4512,4.4506,4.4507,4.4507,4.4515,4.4517,4.4576,4.4506,4.4509,4.451,4.4511,4.4698,4.4701,0,0,0,0,0,0,4.4527,4.4527,4.4576,4.4576,4.4523,4.4524,4.4523,4.4538,4.4528,4.4523,4.451,4.4504,4.4511,4.4514,4.4516,4.4607,4.4509,4.4512,4.4513,4.4695,4.4699,4.4702,0,0,0,0,0,0,4.4526,4.4532,4.4576,4.455,4.4554,4.4528,4.4546,4.454,4.4548,4.4526,4.4521,4.4523,4.4509,4.4512,4.4561,4.4606,4.4513,4.4516,4.4691,4.4696,4.47,4.4789,0,0,0,0,0,0,4.4524,4.4532,4.4562,4.4551,4.4555,4.4621,4.4549,4.4542,4.4553,4.4545,4.4537,4.4533,4.4507,4.4558,4.4564,4.4608,4.4518,4.4687,4.4693,4.4699,4.4782,4.4797,4.4809,0,0,0,0,0,4.4522,4.4587,4.4564,4.457,4.4592,4.4624,4.4627,4.4596,4.4557,4.4586,4.4572,4.4533,4.46,4.4563,4.457,4.4616,4.4684,4.4691,4.4698,4.4776,4.4794,4.4809,0,0,0,0,0,0,4.4603,4.4585,4.4559,4.4622,4.4625,4.4611,4.4647,4.4615,4.4629,4.4621,4.4582,4.458,4.4636,4.463,4.459,4.4691,4.4635,4.4644,4.4692,4.4708,4.4722,4.4721,4.452,0,0,0,0,0,4.4628,4.4656,4.4638,4.4696,4.4699,4.4673,4.4686,4.4662,4.4663,4.4664,4.4654,4.4657,4.4678,4.4693,4.4712,4.4781,4.4778,4.4816,4.4829,4.484,4.4849,4.4885,4.4901,4.4726,4.4726,4.4726,0,0,4.4681,4.4674,4.4694,4.4712,4.4712,4.4741,4.4675,4.4708,4.473,4.4669,4.4714,4.4708,4.4708,4.4768,4.4793,4.4765,4.4896,4.485,4.4859,4.4861,4.4894,4.4911,4.4925,4.4731,4.473,4.4729,0,0,4.4791,4.4789,4.4837,4.4838,4.4838,4.4821,4.4832,4.4823,4.4816,4.4861,4.4816,4.4841,4.4879,4.4881,4.4887,4.4999,4.4963,4.5006,4.5076,4.5112,4.5125,4.5137,4.5177,4.5192,4.5015,4.5015,4.5015,0,4.4856,4.4899,4.4865,4.4902,4.4911,4.4858,4.4906,4.4908,4.4915,4.4922,4.489,4.4937,4.4934,4.4993,4.5021,4.5027,4.5039,4.5007,4.5126,4.5138,4.5149,4.5186,4.5201,4.502,4.5019,4.5019,4.5018,0,4.4978,4.5009,4.5047,4.5055,4.5068,4.5111,4.5083,4.5101,4.5076,4.5062,4.5108,4.5103,4.5119,4.5132,4.5107,4.5188,4.517,4.5133,4.5076,4.5171,4.5205,4.5219,4.5027,4.5026,4.5024,4.5023,0,0,4.5139,4.5128,4.5143,4.5146,4.5143,4.5165,4.5205,4.5222,4.5237,4.5244,4.5276,4.531,4.5275,4.5282,4.5258,4.529,4.5378,4.5248,4.5248,4.5272,4.5466,4.5494,4.5511,4.5355,4.5358,4.536,4.5466,0,4.5245,4.5313,4.5284,4.5354,4.5382,4.5332,4.5367,4.5368,4.5356,4.5378,4.5364,4.5389,4.5342,4.5346,4.5375,4.5361,4.5417,4.5353,4.5384,4.5385,4.5385,4.5529,4.5558,4.5659,4.5479,4.5481,4.5483,0,4.5379,4.5391,4.5464,4.5456,4.5467,4.5498,4.5511,4.5532,4.5533,4.5522,4.5531,4.5499,4.5537,4.5481,4.5533,4.5491,4.5502,4.5497,4.55,4.5502,4.544,4.5533,4.569,4.5705,4.5504,4.5502,4.5501,0,4.5488,4.5523,4.5571,4.5575,4.5568,4.5591,4.5589,4.5586,4.5598,4.561,4.5617,4.5632,4.5641,4.5654,4.5627,4.5589,4.5683,4.5625,4.5674,4.5675,4.5696,4.5695,4.5856,4.5704,4.5704,4.5703,4.5703,0,4.561,4.5656,4.562,4.565,4.5701,4.5667,4.5718,4.571,4.5709,4.5736,4.5694,4.572,4.5684,4.5707,4.5686,4.5732,4.5736,4.5728,4.5722,4.5732,4.5733,4.5738,4.573,4.5707,4.5707,4.5706,4.5705,0,4.574,4.5718,4.5767,4.5756,4.5754,4.5792,4.5782,4.5809,4.5794,4.5829,4.5835,4.5812,4.5837,4.5812,4.5834,4.5821,4.5882,4.5866,4.5882,4.5877,4.5928,4.5924,4.6098,4.6119,4.5954,4.5956,4.5957,0,4.5819,4.5854,4.5847,4.5862,4.5862,4.5887,4.5899,4.5868,4.5882,4.5886,4.5912,4.5933,4.5948,4.599,4.5975,4.5992,4.5976,4.6036,4.5978,4.5987,4.5976,4.5974,4.5977,4.6047,4.6049,4.6051,4.6052,0,4.5962,4.5949,4.5968,4.5984,4.5999,4.601,4.6017,4.6032,4.5999,4.6017,4.6042,4.6054,4.6077,4.6099,4.6112,4.6109,4.6075,4.607,4.6083,4.6093,4.61,4.6096,4.5914,4.6066,4.6065,4.6064,4.6063,4.6063,4.6068,4.6097,4.6096,4.6119,4.6121,4.6129,4.6154,4.6142,4.6162,4.6179,4.6159,4.619,4.619,4.6203,4.6205,4.6228,4.6202,4.622,4.6225,4.623,4.6237,4.6097,4.623,4.623,4.6229,4.6229,4.6229,0,4.6208,4.6205,4.6226,4.6238,4.6256,4.6223,4.623,4.6247,4.6274,4.6277,4.6293,4.6322,4.6342,4.6329,4.6347,4.6368,4.6353,4.6374,4.6371,4.6371,4.6259,4.6246,4.6385,4.6385,4.6385,4.6385,4.6385,4.6385,4.6283,4.6329,4.6317,4.6364,4.636,4.639,4.6397,4.6404,4.6406,4.644,4.6457,4.6448,4.6445,4.6462,4.6479,4.6475,4.6483,4.6509,4.6499,4.6395,4.6379,4.6364,4.6352,4.6511,4.6512,4.6609,4.661,4.6611]}]]